Regional Weather Roundup
Issued by NWS

Home | Current Version | Previous Version | Text Only | Print | Product List | Glossary On
Versions: 1 2 3 4 5 6 7 8 9 10 11 12 13 14 15 16 17 18 19 20 21 22 23 24 25 26 27 28 29 30 31 32 33 34 35 36 37 38 39 40 41 42 43 44 45 46 47 48 49 50
000
ASUS42 KFFC 260803
RWRGA
WEATHER ROUNDUP FOR GEORGIA
NATIONAL WEATHER SERVICE PEACHTREE CITY GA
400 AM EDT SUN MAR 26 2017

NOTE: "FAIR" INDICATES FEW OR NO CLOUDS BELOW 12,000 FEET WITH NO
SIGNIFICANT WEATHER AND/OR OBSTRUCTIONS TO VISIBILITY.

* = USE WITH CAUTION. THE STATIONS MARKED WITH AN ASTERISK MAY NOT
REPORT WEATHER SUCH AS PRECIPITATION, FOG, OR THUNDER AND ARE NOT
QUALITY CONTROLLED BY NWS.

THE REMARK "TC" DENOTES TEMPERATURE READING IN DEGREES CELSIUS.

GAZ001>058-260900-
NORTH GEORGIA

CITY           SKY/WX    TMP DP  RH WIND       PRES   REMARKS
ATLANTA        LGT RAIN  60  59  96 SE7       30.10F
ATHENS         LGT RAIN  59  57  93 VRB5      30.12F
CHAMBLEE       LGT RAIN  59  57  93 S3        30.10F
PEACHTREE CITY LGT RAIN  61  60  97 SE6       30.10F
ROME           CLOUDY    61  58  90 SW6       30.06R
WEST ATLANTA   LGT RAIN  61  57  87 SE6       30.09F
GAINESVILLE    CLOUDY    59  56  89 S7        30.12F
CARTERSVILLE   CLOUDY    59  58  96 SE5       30.08S


CITY           SKY/WX    TMP DP  RH WIND       PRES   REMARKS
DALTON*        LGT RAIN  59  59 100 SE15      30.05F
MARIETTA       LGT RAIN  60  58  93 SE6       30.09F
CANTON*        LGT RAIN  59  55  88 E3        30.11F
$$

GAZ059>098-102>109-260900-
CENTRAL GEORGIA

CITY           SKY/WX    TMP DP  RH WIND       PRES   REMARKS
AUGUSTA-BUSH   PTCLDY    55  53  93 SE6       30.15F
AUGUSTA-DANIEL PTCLDY    60  53  77 SE7       30.15F
COLUMBUS       CLOUDY    62  58  86 S5        30.08F
MACON          CLOUDY    64  56  75 S8        30.13S
ROBINS AFB     CLOUDY    64  57  78 S8        30.12S


CITY           SKY/WX    TMP DP  RH WIND       PRES   REMARKS
LAGRANGE*      CLOUDY    61  61 100 SE3       30.07S
SYLVANIA*      PTCLDY   N/A N/A N/A CALM      30.18F
MILLEDGEVILLE* CLOUDY    61  59  94 CALM      30.13F
$$

GAZ099>101-110>166-260900-
SOUTH GEORGIA

CITY           SKY/WX    TMP DP  RH WIND       PRES   REMARKS
SAVANNAH       PTCLDY    57  54  89 CALM      30.18S
VALDOSTA       CLEAR     59  58  96 CALM      30.13F
ALMA           PTCLDY    61  59  93 CALM      30.14F
ST SIMONS      CLEAR     65  60  84 CALM      30.15S
FT STEWART     MOCLDY    58  55  92 CALM      30.14F
ALBANY         CLOUDY    64  58  80 CALM      30.13F
HUNTER AFB     CLEAR     59  57  92 CALM      30.14F
MOODY AFB      CLEAR     62  57  86 SE5       30.12F
BRUNSWICK      FOG       59  59 100 CALM      30.16F VSB 3/4


CITY           SKY/WX    TMP DP  RH WIND       PRES   REMARKS
BAINBRIDGE*    MOCLDY    63  59  88 SE7       30.10F
MOULTRIE*      CLOUDY    63  55  77 CALM      30.13F
VIDALIA*       MOCLDY    63  59  88 SE3       30.15F
WAYCROSS*      PTCLDY    64  64 100 CALM      30.14F
DOUGLAS*       CLOUDY    63  57  82 CALM      30.15F
$$



USA.gov is the U.S. government's official web portal to all federal, state and local government web resources and services.